Location: Dresden
(51.0500°N, 13.7500°E)
Time: 13:44:52
(UTC+00:00)

ISS - Pass Details

Date: 31 March 2019
Orbit: 408 x 410 km, 51.6° (Epoch: 25 April)

Event Time Altitude Azimuth Distance (km) Brightness Sun altitude
Rises 20:36:25 0° 285° (WNW) 2,339 0.9 -25.8°
Reaches altitude 10° 20:38:37 10° 275° (W) 1,474 -0.4 -26.0°
Enters shadow 20:39:27 16° 268° (W) 1,176 -1.1 -26.1°
